Showing default

ESEO, 43792

Orbit data source: Space-Track

ESEO, 43792 is a payload satellite owned by ESA (ESA) in SSO that was launched on Mon, 03 Dec 2018 UTC via an FALCON 9 launch vehicle from the Air Force Western Test Range (AFWTR). Payload-class satellites include a variety of spacecraft equipped with specific instruments for various scientific and technological missions. These include communications satellites like Starlink; space stations such as the ISS; scientific satellites like the Hubble; Earth observation satellites from companies like Planet Labs, Umbra, and HawkEye 360; GPS; miniature CubeSats for education and research; and military/defense satellites.

Loading next visibility...
Identifier
43792, 2018-099AL
Orbit
SSO
Country
Flag of ESAESA
Related business
Manufacturer
ESTEC/OHBI
Mission
Operational Civil Technology
Bus & Motor
ESEO, Unknown motor
Mass
120 kg wet, 120 kg dry
Launch date (UTC)
2018-12-03 (7 years ago)
Launch vehicle
FALCON 9
Launch site
Air Force Western Test Range (AFWTR)
Object type
Payload
Rocket body
Debris
Shape & HBR
Box, 0.3 m
Radar Cross Section
0.262 m², Medium (>0.1 m² and < 1m²)

Expand to show TLE details & history
Last TLE update: 8 hours ago

TLE from 8 hours ago
0 ESEO
1 43792U 18099AL  25303.88393635  .00002935  00000-0  22080-3 0  9994
2 43792  97.4286 345.8092 0013125  39.0107 321.2063 15.03223385377349
Epoch: 2025-10-30T21:12Z
TLE epoch observation values (Epoch: 2025-10-30T21:12:52.100Z)
Latitude
-0.00005°
Longitude
-11.8442°
Altitude
552.94 km
Speed
7.589 km/s
True Right ascension
23h 03m 14s
True Declination
0° 00' 00"
Sunlit
Object was in full shadow at epoch
Visualization orbit readout
Latitude
Unknown
Longitude
Unknown
Altitude
Unknown
Speed
Unknown
Apparent Right ascension
Unknown
Apparent Declination
Unknown
Sunlit
N/A
Visualization observer readout
Local Sidereal Time
00:39:29
Azimuth
Unknown
Elevation
Unknown
Doppler factor
Unknown
Orbital elements
Apogee altitude
563.052 km
Perigee altitude
544.855 km
Semi-major axis
6,932.091 km
Eccentricity
0.00131
Inclination
97.4286°
RAAN
345.8092°
Arg. of periapsis
39.0107°
True anomaly
321.11195°
Mean anomaly
321.2063°
Eccentric anomaly
321.15914°
Mean motion
3.76051 °/min
Orbital period
95.73 mins
BSTAR
0.0002208
Loading maneuver chart data...
Computing Atmospheric mass density...
Loading historical data...
Loading historical data...
Loading historical data...
Loading historical data...
Loading historical data...
Loading historical data...
Loading historical data...

Documentation

Showing up to 5 results
|